Tracking 22879 objects as of 22-Apr-2021
HD Live streaming from Space Station
objects crossing your sky now

CZ-2D DEB

Track CZ-2D DEB now!
10-day predictions


NORAD ID: 45805
Int'l Code: 2020-034D
Perigee: 437.6 km
Apogee: 496.9 km
Inclination: 97.4 °
Period: 93.8 minutes
Semi major axis: 6838 km
RCS: Unknown
Launch date: May 31, 2020
Source: People's Republic of China (PRC)
Launch site: Jiuquan Satellite Launch Center, China (JSC)

Note: This is SATELLITE DEBRIS
aabbcc
Your satellite tracking list
Your tracking list is empty




NASA's NSSDC Master Catalog

Two Line Element Set (TLE):
1 45805U 20034D   21112.13776368  .00010497  00000-0  29962-3 0  9991
2 45805  97.4477 265.0362 0043336 223.4560 136.3265 15.35265973 46548
Source of the keplerian elements: AFSPC